Back to catalog

GO-32

TECHSAT 1B

AliveAmateur RadioSSO
NORAD 25397·PAYLOAD·🇮🇱 Israel

Launched Jul 10, 1998 from Baikonur Cosmodrome

Loading…

Next Passes (next 24 hours)

TLE

FreshSource: Space-Track

Epoch: Sep 14, 2026, 09:54 UTC

1 25397U 98043D   26257.41299807  .00000025  00000-0  30886-4 0  9998
2 25397  99.0152 252.4556 0001057  13.7115 346.4091 14.24442711464038

Track GO-32 in real time with AllMySat

Download on the App Store